Regional Weather Roundup
Issued by NWS

Home | Current Version | Previous Version | Text Only | Print | Product List | Glossary On
Versions: 1 2 3 4 5 6 7 8 9 10 11 12 13 14 15 16 17 18 19 20 21 22 23 24 25 26 27 28 29 30 31 32 33 34 35 36 37 38 39 40 41 42 43 44 45 46 47 48 49 50
000
ASPQ40 PGUM 010212
RWRPQ
WEATHER ROUNDUP FOR THE MARIANAS AND MICRONESIA
NATIONAL WEATHER SERVICE TIYAN GU
1200 PM CHST MON MAY 01 2017

GUZ001>004-010300-
MARIANA ISLANDS-

CITY           SKY/WX    TMP DP  RH WIND       PRES   REMARKS
GUAM AIRPORT   SUNNY     88  75  66 E14       29.95F HX  97
ANDERSEN AFB   MOSUNNY   84  75  74 E14G22    29.96F HX  92
ROTA AIRPORT   MOSUNNY   84  75  74 E15G21    29.96F HX  92
TINIAN AP      MOSUNNY   84  73  70 E15       29.94  HX  91
SAIPAN AP      MOSUNNY   88  75  66 E14       29.95F HX  97

$$

PMZ161-010300-
REPUBLIC OF PALAU-

CITY           SKY/WX    TMP DP  RH WIND       PRES   REMARKS
KOROR AP       PTSUNNY   82  77  83 S5        29.90F HX  91
KOROR WSO      CLOUDY    82  75  78 CALM      29.91F

$$

PMZ171>174-010300-
FEDERATED STATES OF MICRONESIA-

CITY           SKY/WX    TMP DP  RH WIND       PRES   REMARKS
YAP AIRPORT    MOSUNNY   88  79  74 SE9       29.91F HX 102
CHUUK AP       SHOWER    77  75  94 NE9       29.88F
POHNPEI AP     CLOUDY    88  77  70 E15       29.85S HX 100
POHNPEI WSO    CLOUDY    86  75  70 NE7       29.87F HX  95
KOSRAE AP      MOSUNNY   88  75  66 NE21      29.81F HX  97

$$

PMZ181-010300-
REPUBLIC OF THE MARSHALL ISLANDS-

CITY           SKY/WX    TMP DP  RH WIND       PRES   REMARKS
KWAJALEIN AP   MOSUNNY   82  73  74 E9        29.82F
MAJURO AP      PTSUNNY   84  77  79 NE14      29.79F HX  94
MAJURO WSO     PTSUNNY   84  75  74 E8        29.78F HX  92

$$




USA.gov is the U.S. government's official web portal to all federal, state and local government web resources and services.